This is the latest recevied weather packets stored in our database for station/object KD9JB-1. If no packets are shown the sender has not sent any weather packets the latest 10 day(s).
| Time | Temp. | Humidity | Pressure | Rain* | Wind** | Luminosity | Snow |
|---|---|---|---|---|---|---|---|
| 1778189791 | 18.33° C | 35% | 1015.3 hPa | 0 mm | - | - | - |
| 1778189490 | 18.33° C | 36% | 1015.4 hPa | 0 mm | - | - | - |
| 1778189190 | 18.33° C | 35% | 1015.3 hPa | 0 mm | - | - | - |
| 1778188891 | 18.33° C | 35% | 1015.3 hPa | 0 mm | - | - | - |
| 1778188591 | 18.33° C | 32% | 1015.2 hPa | 0 mm | - | - | - |
| 1778188290 | 18.33° C | 37% | 1015.3 hPa | 0 mm | - | - | - |
| 1778187991 | 17.78° C | 37% | 1015.2 hPa | 0 mm | - | - | - |
| 1778187691 | 17.78° C | 33% | 1015.3 hPa | 0 mm | - | - | - |
| 1778187391 | 18.33° C | 37% | 1015.4 hPa | 0 mm | - | - | - |
| 1778187091 | 17.78° C | 35% | 1015.5 hPa | 0 mm | - | - | - |
| 1778186791 | 18.33° C | 36% | 1015.5 hPa | 0 mm | - | - | - |
| 1778186491 | 18.33° C | 35% | 1015.5 hPa | 0 mm | - | - | - |
| 1778186191 | 17.78° C | 37% | 1015.7 hPa | 0 mm | - | - | - |
| 1778185891 | 18.33° C | 35% | 1015.7 hPa | 0 mm | - | - | - |
| 1778185591 | 18.33° C | 35% | 1015.7 hPa | 0 mm | - | - | - |
| 1778185291 | 17.78° C | 34% | 1015.7 hPa | 0 mm | - | - | - |
| 1778184991 | 18.33° C | 37% | 1015.8 hPa | 0 mm | - | - | - |
| 1778184691 | 18.33° C | 36% | 1015.8 hPa | 0 mm | - | - | - |
| 1778184391 | 18.33° C | 38% | 1015.8 hPa | 0 mm | - | - | - |
| 1778184091 | 17.78° C | 37% | 1015.8 hPa | 0 mm | - | - | - |
| 1778183791 | 17.22° C | 35% | 1015.8 hPa | 0 mm | - | - | - |
| 1778183491 | 17.78° C | 35% | 1016 hPa | 0 mm | - | - | - |
| 1778183191 | 17.78° C | 35% | 1016 hPa | 0 mm | - | - | - |
| 1778182891 | 17.78° C | 36% | 1016 hPa | 0 mm | - | - | - |
| 1778182591 | 17.78° C | 35% | 1016 hPa | 0 mm | - | - | - |
* Rain latest hour (hover to see other rain measurements)
** Current wind speed in m/s (hover to see current wind gust speed)